Temperature
11 11 11 10 10 10 10 10 10 10 10 9 9 9 8 8 7 7 6 6 5 5 4 4 3 3 2 2 1 1 0 -1 -2 -1 -1 -1 -1 -2 -2 -2 -2 -2 -3
11 11 11 10 10 10 10 10 10 10 9 9 9 8 8 7 7 6 6 5 5 4 4 3 3 2 2 1 1 0 0 -1 -2 -2 -2 -2 -2 -3 -3 -3 -4 -4 -4
11 11 10 10 10 10 10 10 10 9 9 9 8 8 7 7 6 6 5 5 4 4 3 3 3 2 2 1 1 0 -0 -1 -2 -3 -2 -3 -3 -3 -4 -4 -5 -5 -5
11 10 10 10 10 10 10 10 9 9 9 8 8 7 7 6 6 5 5 4 4 3 3 3 2 1 1 1 0 -0 -1 -2 -2 -3 -3 -3 -4 -4 -5 -5 -5 -5 -5
10 10 10 10 10 10 9 9 9 8 8 8 7 7 6 6 5 5 4 4 3 3 3 2 2 1 1 0 -1 -1 -2 -2 -3 -3 -4 -4 -4 -5 -5 -5 -6 -5 -5
10 10 10 10 9 9 9 9 8 8 8 7 7 6 6 6 5 4 4 3 3 2 2 2 1 1 0 -0 -1 -2 -2 -3 -3 -4 -4 -5 -5 -5 -5 -6 -6 -6 -6
10 10 9 9 9 9 9 8 8 8 7 7 6 6 5 5 4 4 3 2 2 2 1 1 0 -0 -1 -1 -2 -2 -3 -3 -4 -4 -5 -5 -5 -6 -6 -6 -6 -6 -6
9 9 9 9 8 8 8 8 7 7 7 6 6 5 5 4 4 3 2 2 1 1 1 0 -1 -1 -1 -2 -2 -3 -3 -3 -4 -5 -5 -5 -6 -6 -6 -6 -6 -6 -6
9 9 8 8 7 7 7 7 7 6 6 6 5 5 4 4 3 3 2 1 1 0 0 -1 -1 -2 -2 -3 -3 -4 -4 -4 -5 -5 -6 -6 -6 -6 -6 -6 -6 -6 -6
9 9 8 7 7 7 7 6 6 6 5 5 4 4 3 3 2 2 1 0 0 -0 -1 -1 -2 -2 -3 -4 -4 -5 -5 -5 -5 -6 -6 -6 -6 -6 -6 -6 -6 -7 -7
9 8 7 7 6 6 6 5 5 5 4 4 4 3 3 2 2 1 0 -0 -1 -1 -1 -2 -2 -3 -4 -4 -5 -5 -5 -5 -6 -6 -6 -6 -6 -6 -7 -7 -7 -7 -7
8 7 7 6 6 5 5 5 4 4 4 3 3 2 2 2 1 0 -0 -1 -1 -2 -2 -3 -3 -4 -5 -5 -5 -6 -6 -6 -6 -6 -6 -6 -7 -7 -7 -7 -8 -8 -8
7 7 6 5 5 4 4 4 4 3 3 3 2 2 1 1 0 -0 -1 -2 -2 -3 -3 -4 -4 -5 -5 -6 -6 -6 -6 -7 -7 -7 -7 -7 -7 -8 -8 -8 -8 -8 -8
7 6 5 5 4 4 3 3 3 3 2 2 1 1 1 0 -0 -1 -2 -2 -3 -3 -4 -4 -5 -6 -6 -6 -6 -7 -7 -7 -7 -7 -7 -8 -8 -8 -8 -9 -9 -9 -9
6 5 5 4 4 3 3 3 2 2 2 1 1 0 -0 -1 -1 -2 -3 -3 -4 -4 -5 -5 -6 -6 -6 -7 -7 -7 -7 -8 -8 -8 -8 -8 -9 -9 -9 -9 -9 -9 -9
5 5 4 4 3 3 2 2 2 1 1 0 -0 -1 -1 -2 -2 -3 -3 -4 -4 -5 -6 -6 -6 -7 -7 -7 -8 -8 -8 -8 -8 -9 -9 -9 -9 -9 -10 -10 -10 -9 -9
5 4 3 3 3 2 2 1 1 1 0 -0 -1 -1 -2 -2 -3 -3 -4 -5 -5 -6 -6 -7 -7 -7 -7 -8 -8 -8 -9 -9 -9 -9 -10 -10 -10 -10 -10 -10 -10 -10 -10
4 3 3 2 2 1 1 1 0 -0 -1 -1 -1 -2 -3 -3 -4 -4 -5 -6 -6 -6 -7 -7 -7 -8 -8 -8 -9 -9 -9 -10 -10 -10 -10 -10 -10 -11 -11 -10 -10 -10 -10
3 3 2 2 1 1 0 -0 -1 -1 -2 -2 -2 -3 -3 -4 -5 -5 -6 -6 -7 -7 -7 -8 -8 -8 -9 -9 -9 -10 -10 -10 -10 -11 -11 -11 -11 -11 -11 -11 -11 -10 -10
2 2 1 1 1 0 -0 -1 -2 -2 -3 -3 -3 -4 -5 -5 -6 -6 -6 -7 -7 -8 -8 -9 -9 -9 -9 -10 -10 -10 -10 -11 -11 -11 -11 -11 -11 -11 -11 -11 -11 -11 -11
2 1 1 0 -0 -1 -1 -2 -3 -3 -4 -4 -4 -5 -6 -6 -7 -7 -7 -8 -8 -8 -9 -9 -9 -10 -10 -10 -10 -11 -11 -11 -11 -11 -11 -11 -11 -12 -12 -11 -11 -11 -11
1 0 -0 -1 -1 -2 -2 -3 -3 -4 -5 -5 -5 -6 -6 -7 -7 -8 -8 -8 -9 -9 -9 -10 -10 -10 -10 -11 -11 -11 -11 -11 -11 -11 -12 -12 -12 -12 -12 -12 -12 -12 -11
0 -0 -1 -1 -2 -3 -3 -4 -4 -5 -5 -6 -6 -7 -7 -7 -8 -8 -9 -9 -9 -9 -10 -10 -10 -11 -11 -11 -11 -11 -12 -12 -12 -12 -12 -12 -12 -12 -12 -12 -12 -12 -12
-1 -1 -2 -2 -3 -4 -4 -5 -5 -6 -6 -7 -7 -7 -8 -8 -8 -9 -9 -9 -10 -10 -10 -10 -11 -11 -11 -11 -11 -12 -12 -12 -12 -12 -12 -12 -12 -12 -12 -12 -12 -12 -12
-2 -2 -3 -3 -4 -4 -5 -5 -6 -6 -7 -7 -7 -8 -8 -9 -9 -9 -9 -10 -10 -10 -10 -11 -11 -11 -11 -11 -12 -12 -12 -12 -12 -12 -12 -13 -13 -13 -13 -13 -12 -12 -12
-3 -3 -4 -4 -5 -5 -6 -6 -7 -7 -7 -8 -8 -9 -9 -9 -9 -10 -10 -10 -10 -11 -11 -11 -11 -11 -11 -11 -12 -12 -12 -12 -12 -12 -12 -13 -13 -13 -13 -13 -13 -12 -12
Wind_Speed
11 10 10 10 10 10 10 10 10 9 10 10 9 8 8 7 6 6 5 5 6 5 5 6 7 6 5 5 5 5 6 6 12 11 6 7 8 8 12 15 17 17 18
11 10 10 10 10 10 10 10 10 10 10 9 9 8 7 7 6 6 6 6 6 6 6 6 7 6 7 6 5 7 7 7 10 15 9 6 8 8 8 9 12 16 16
11 11 10 10 11 11 10 10 10 10 9 9 8 8 7 7 6 6 6 5 6 6 6 7 7 7 8 7 7 7 7 8 8 10 11 7 6 7 9 10 10 9 16
11 11 11 11 11 10 10 10 10 10 9 9 8 7 7 7 6 6 6 5 5 6 6 7 8 8 9 9 8 8 8 8 7 9 11 9 8 8 7 8 10 7 9
11 11 11 10 10 9 9 9 9 9 9 8 7 7 6 6 6 7 6 6 7 7 7 8 9 12 14 13 10 8 7 7 8 9 11 11 10 8 8 7 11 9 8
11 10 10 10 10 10 10 9 9 8 8 8 8 7 7 6 9 11 8 6 7 7 8 9 9 11 16 20 21 19 15 11 9 9 10 12 12 9 9 9 10 11 9
10 10 10 10 10 10 10 9 9 9 7 7 7 7 7 8 11 12 12 7 7 7 8 8 10 10 14 9 14 19 17 20 19 13 12 12 12 11 11 11 10 12 12
10 10 10 10 9 9 9 9 8 6 7 6 7 7 6 8 11 12 12 8 7 8 9 9 10 10 10 11 9 9 9 10 13 11 11 12 13 12 12 13 14 13 11
10 10 10 10 10 9 9 8 6 6 6 6 6 6 6 7 10 11 10 5 6 8 9 9 10 9 16 19 12 10 10 9 15 20 22 21 24 25 19 11 9 10 11
9 9 9 9 9 9 8 7 5 5 5 5 5 5 6 6 9 11 11 5 7 7 7 8 13 14 18 19 11 9 11 10 10 12 14 17 15 16 20 11 7 9 10
8 8 8 8 8 7 6 5 5 5 5 4 5 5 5 7 9 12 12 6 6 7 6 6 7 16 19 20 18 11 16 16 11 9 9 8 8 7 7 7 6 7 8
8 8 8 7 6 6 6 5 5 5 5 4 4 4 4 5 7 10 13 13 11 7 7 6 8 18 20 21 17 18 24 20 9 7 8 7 6 6 5 6 6 7 7
9 8 7 7 6 6 6 5 4 4 4 4 4 4 5 4 6 12 14 15 15 9 8 14 17 20 20 15 18 22 19 10 7 7 7 6 5 5 5 5 6 6 6
9 8 7 6 5 4 4 4 4 4 4 4 4 5 5 4 4 4 5 7 11 11 9 13 19 20 16 16 16 12 7 7 8 7 6 5 4 4 5 4 5 4 5
8 7 6 5 5 4 3 3 4 5 5 5 5 5 5 6 8 12 9 6 5 8 9 7 6 7 6 6 7 7 6 5 6 4 4 5 4 5 5 4 4 4 5
7 6 5 4 3 3 2 1 3 4 7 8 9 8 8 11 15 15 16 17 17 18 13 8 8 8 8 7 7 6 5 5 5 5 4 4 4 5 5 5 4 5 5
7 6 4 4 3 3 3 3 3 4 6 9 11 12 12 14 15 16 17 18 18 17 10 8 8 8 7 7 6 6 5 5 4 4 5 5 5 5 5 5 5 5 5
6 6 5 3 3 3 3 3 3 4 4 5 8 12 14 15 16 17 17 15 10 9 7 8 8 8 7 6 6 5 5 5 4 4 5 5 5 4 5 5 5 5 5
5 4 3 3 2 2 3 3 3 4 5 5 5 7 12 14 16 16 15 7 7 8 7 7 7 7 7 6 6 5 5 5 5 5 5 5 4 4 5 5 6 9 7
4 4 3 2 2 2 3 3 4 4 5 5 6 6 6 7 6 7 7 6 7 8 8 8 7 7 6 6 5 5 5 5 5 5 5 5 4 4 5 6 5 5 5
3 3 3 2 3 3 3 4 4 5 6 6 6 8 12 7 7 7 7 7 7 7 7 7 7 7 6 5 5 6 6 6 6 5 5 5 4 4 4 5 5 5 5
3 2 2 2 3 3 4 4 4 5 6 8 7 8 15 9 7 7 7 7 7 7 7 7 6 6 6 5 6 6 7 7 6 5 5 5 4 4 4 4 5 4 4
2 2 2 2 3 5 6 4 5 6 6 7 7 7 7 7 8 8 8 8 7 7 6 6 7 6 6 6 6 6 7 7 6 5 6 5 5 5 4 5 5 5 5
2 2 2 3 3 3 4 5 5 6 7 7 7 8 8 8 8 9 9 8 7 7 7 6 7 9 10 8 7 7 7 8 7 6 7 7 6 5 5 5 5 6 5
1 2 2 3 4 4 5 6 6 7 7 8 9 9 8 8 9 9 8 8 8 8 9 8 7 8 9 10 9 9 13 17 15 10 7 7 8 7 7 7 6 6 5
1 2 3 3 4 5 5 6 7 8 8 9 9 9 9 9 9 9 8 8 8 8 9 8 8 9 10 10 11 15 18 18 18 17 10 7 8 8 8 7 8 7 7
Wind_Direction
176 174 168 163 158 156 158 158 154 152 155 161 167 169 173 178 182 189 200 204 216 229 233 236 244 243 245 245 243 244 245 246 270 279 270 282 291 296 303 303 302 301 301
174 169 165 159 156 158 159 157 154 156 160 164 167 171 178 184 188 196 209 213 220 232 240 245 252 255 253 250 249 250 253 251 265 281 285 282 281 286 286 288 298 299 298
170 167 165 164 164 165 162 160 159 160 162 164 167 176 184 188 194 203 210 218 227 236 243 249 255 256 260 257 255 256 258 265 262 278 288 285 283 285 289 289 286 288 292
168 169 171 171 169 167 163 161 162 162 164 169 174 180 186 190 198 207 211 222 237 247 251 252 255 254 256 258 260 258 260 265 269 277 284 288 285 283 284 289 293 281 284
168 171 173 168 163 161 161 161 161 162 167 168 173 182 188 194 204 206 211 223 235 248 254 254 256 258 263 267 268 261 255 261 268 276 282 288 289 290 286 286 293 292 279
170 171 166 163 162 163 162 161 161 165 168 171 181 188 198 209 217 220 220 223 233 244 256 260 263 267 272 276 278 279 275 273 274 275 281 284 287 284 286 287 289 293 293
167 166 165 164 164 164 163 162 168 172 172 180 188 193 205 217 224 233 236 234 237 246 255 264 273 274 279 272 278 281 281 281 281 281 281 281 285 285 284 284 279 280 283
164 165 164 163 163 161 163 169 171 171 177 184 193 199 209 223 229 238 243 240 243 250 255 260 266 269 270 276 269 266 261 267 274 278 272 274 276 276 270 275 279 282 280
164 165 163 161 160 163 170 172 171 172 184 190 193 201 213 230 234 243 248 239 246 253 257 261 268 271 281 287 285 279 278 273 282 283 283 286 287 290 291 290 289 292 293
162 158 155 156 161 166 169 169 169 174 185 187 200 208 216 231 243 248 250 240 250 259 261 261 273 281 288 291 286 280 282 281 278 281 282 285 287 287 291 285 279 284 289
141 140 144 149 155 158 160 164 165 170 175 191 208 220 225 236 249 252 256 250 246 259 265 264 266 285 289 290 290 282 283 288 283 278 278 277 276 272 271 269 263 262 276
132 135 139 142 147 151 155 161 163 166 181 202 218 236 240 244 252 261 266 268 272 267 269 269 274 288 290 291 292 289 291 295 290 285 282 277 274 274 275 276 272 260 256
131 133 135 136 141 150 157 163 166 172 187 210 220 238 250 247 257 267 273 276 279 279 276 282 288 292 295 294 292 293 295 292 285 282 280 276 268 272 281 285 279 272 269
131 132 135 139 144 147 152 163 173 185 199 215 228 242 254 259 258 260 260 272 278 280 282 284 289 291 290 288 290 292 283 277 280 273 273 274 283 289 288 283 282 281 283
130 132 135 140 148 155 164 180 190 203 206 218 227 232 246 261 263 272 279 273 269 270 286 279 276 279 274 273 274 271 266 276 287 278 278 282 286 294 291 285 278 279 277
135 137 139 143 146 153 166 212 235 238 248 251 255 258 262 268 280 283 286 287 290 291 293 284 282 280 279 279 278 275 270 268 268 270 275 279 283 289 289 287 282 277 278
138 142 141 148 158 169 179 201 254 285 273 269 270 274 277 281 285 287 289 291 291 294 287 279 279 279 278 275 273 271 272 269 267 267 270 271 272 278 287 288 285 281 279
130 139 146 157 169 183 200 215 228 250 273 276 274 279 283 285 287 289 291 294 289 284 268 272 275 276 275 271 269 268 267 270 269 264 265 265 264 266 278 283 282 278 279
134 142 147 157 173 196 214 230 242 252 261 273 278 282 283 287 289 289 291 280 275 274 270 270 271 272 271 269 266 263 261 263 265 263 261 260 258 258 267 276 280 287 287
137 152 156 166 189 215 229 241 253 259 266 271 274 277 283 285 279 281 273 264 268 271 270 270 270 268 267 264 261 259 260 262 261 257 256 255 252 251 262 273 275 276 271
143 162 179 191 212 226 237 246 253 259 265 270 271 280 289 288 280 277 274 270 268 271 271 270 269 268 263 260 257 258 260 261 252 245 246 249 246 249 255 264 270 271 270
147 168 190 210 230 240 253 251 257 264 269 275 280 286 292 288 279 277 276 274 268 264 264 266 267 262 257 255 257 259 261 259 251 243 243 243 244 249 253 259 265 268 270
155 187 221 239 246 268 278 268 268 269 272 274 279 282 283 277 276 277 277 276 271 268 265 263 267 265 257 253 249 249 254 254 245 237 241 242 241 247 251 253 257 264 265
181 212 237 253 260 264 270 272 271 272 274 278 279 280 280 277 276 278 278 276 273 270 267 263 263 263 261 259 257 253 249 250 244 235 229 234 237 240 246 249 249 251 257
210 232 249 259 266 270 273 275 276 278 281 284 284 284 283 282 280 281 279 277 277 276 274 270 267 266 263 261 261 259 264 267 265 250 225 226 230 231 238 244 245 244 248
239 252 261 265 267 269 272 277 280 282 283 285 285 285 285 284 283 283 282 280 279 278 277 273 266 263 263 264 264 267 272 271 269 264 247 228 226 230 231 237 236 236 239
Height
1461 1465 1470 1473 1477 1481 1484 1488 1491 1494 1497 1499 1501 1503 1504 1505 1505 1505 1505 1505 1504 1503 1502 1501 1500 1498 1497 1495 1493 1491 1488 1485 1477 1471 1471 1469 1467 1464 1461 1459 1455 1451 1448
1457 1461 1465 1469 1472 1476 1480 1483 1487 1490 1493 1495 1497 1498 1499 1500 1501 1501 1500 1500 1499 1498 1497 1496 1494 1493 1491 1489 1487 1484 1482 1479 1474 1466 1463 1462 1460 1458 1454 1451 1448 1445 1442
1453 1457 1460 1464 1467 1471 1475 1479 1482 1485 1488 1490 1492 1493 1495 1495 1496 1496 1495 1495 1494 1493 1492 1490 1489 1487 1484 1483 1480 1477 1475 1472 1468 1463 1457 1455 1453 1451 1447 1444 1441 1438 1435
1449 1452 1456 1459 1463 1467 1471 1474 1478 1480 1483 1485 1487 1489 1490 1490 1490 1490 1490 1489 1488 1487 1486 1484 1482 1481 1478 1476 1473 1470 1468 1465 1462 1457 1452 1448 1446 1444 1441 1437 1433 1431 1428
1444 1448 1451 1455 1459 1463 1466 1470 1473 1476 1478 1480 1482 1483 1484 1485 1485 1485 1484 1483 1482 1480 1479 1477 1476 1474 1471 1469 1467 1463 1461 1458 1454 1450 1445 1441 1438 1437 1434 1431 1427 1423 1420
1440 1443 1447 1451 1455 1458 1461 1465 1468 1470 1473 1475 1477 1478 1479 1479 1479 1479 1478 1477 1475 1474 1472 1470 1469 1467 1464 1462 1460 1457 1455 1452 1448 1444 1439 1436 1432 1431 1428 1425 1421 1417 1411
1435 1439 1443 1446 1450 1453 1457 1460 1462 1465 1467 1469 1471 1472 1473 1474 1474 1473 1472 1470 1468 1467 1465 1463 1461 1459 1457 1454 1452 1449 1447 1445 1442 1439 1433 1429 1426 1424 1422 1418 1415 1411 1406
1431 1435 1438 1442 1445 1448 1451 1454 1457 1460 1462 1464 1466 1467 1467 1468 1468 1467 1466 1464 1462 1460 1458 1456 1454 1451 1449 1447 1443 1440 1438 1436 1434 1431 1427 1423 1420 1418 1415 1412 1408 1403 1399
1427 1430 1434 1437 1440 1443 1446 1449 1452 1455 1457 1459 1460 1461 1461 1462 1462 1461 1459 1457 1454 1453 1451 1449 1447 1444 1442 1440 1436 1432 1429 1426 1425 1423 1420 1417 1414 1412 1409 1406 1401 1398 1393
1423 1427 1430 1433 1436 1439 1442 1445 1447 1450 1452 1453 1454 1455 1456 1456 1455 1454 1453 1450 1447 1445 1443 1441 1440 1437 1435 1432 1429 1425 1421 1418 1416 1413 1411 1409 1406 1404 1402 1400 1396 1392 1388
1421 1424 1427 1430 1432 1435 1438 1441 1443 1445 1447 1448 1449 1450 1450 1450 1449 1448 1446 1444 1441 1438 1435 1433 1431 1429 1427 1424 1422 1418 1415 1412 1408 1405 1402 1400 1398 1396 1394 1392 1390 1387 1383
1419 1421 1424 1427 1429 1432 1434 1436 1439 1440 1442 1442 1443 1443 1443 1443 1442 1440 1439 1437 1434 1431 1428 1425 1423 1421 1419 1416 1414 1411 1408 1405 1401 1398 1395 1392 1390 1388 1386 1384 1382 1380 1378
1416 1419 1421 1424 1426 1428 1431 1432 1434 1436 1437 1437 1437 1437 1436 1436 1435 1434 1432 1429 1427 1424 1421 1418 1415 1413 1410 1407 1405 1403 1400 1397 1394 1391 1388 1385 1384 1382 1380 1378 1376 1374 1371
1414 1416 1418 1421 1423 1425 1427 1429 1430 1431 1431 1431 1431 1430 1429 1428 1427 1426 1424 1421 1419 1416 1413 1410 1408 1405 1402 1400 1397 1395 1392 1390 1387 1384 1381 1379 1377 1376 1374 1372 1370 1368 1366
1411 1414 1416 1418 1420 1422 1423 1425 1426 1426 1427 1426 1426 1425 1423 1421 1420 1419 1417 1414 1411 1409 1405 1402 1399 1396 1394 1392 1389 1387 1385 1383 1381 1378 1376 1374 1372 1370 1368 1367 1365 1364 1362
1408 1411 1413 1415 1417 1418 1419 1420 1421 1422 1422 1421 1420 1419 1417 1415 1413 1412 1410 1407 1404 1402 1399 1394 1392 1389 1387 1385 1382 1380 1378 1377 1375 1373 1371 1369 1367 1365 1364 1362 1361 1360 1358
1406 1408 1410 1411 1413 1414 1414 1415 1415 1416 1416 1415 1414 1413 1411 1409 1407 1404 1402 1399 1397 1395 1391 1387 1385 1383 1380 1378 1376 1374 1372 1370 1369 1367 1365 1364 1362 1361 1359 1358 1357 1356 1354
1403 1405 1407 1408 1409 1410 1410 1410 1410 1409 1408 1407 1407 1406 1404 1401 1399 1397 1395 1392 1388 1386 1384 1381 1378 1376 1374 1372 1370 1368 1366 1364 1363 1361 1360 1358 1357 1356 1355 1354 1353 1352 1351
1400 1402 1403 1404 1405 1405 1405 1405 1404 1403 1402 1400 1399 1398 1396 1394 1391 1390 1387 1384 1381 1378 1376 1374 1371 1369 1367 1365 1363 1361 1360 1358 1357 1356 1354 1353 1353 1352 1351 1350 1349 1348 1348
1397 1399 1399 1400 1401 1401 1400 1400 1399 1397 1395 1394 1392 1390 1388 1386 1383 1381 1379 1377 1374 1371 1369 1366 1364 1362 1360 1358 1356 1355 1353 1352 1351 1350 1349 1348 1348 1347 1347 1346 1345 1345 1344
1394 1395 1395 1396 1396 1395 1395 1394 1393 1391 1389 1387 1385 1384 1382 1379 1376 1373 1371 1369 1366 1364 1361 1359 1357 1355 1353 1351 1350 1348 1347 1346 1345 1344 1344 1343 1343 1342 1342 1342 1341 1341 1340
1390 1391 1391 1391 1390 1390 1389 1388 1387 1385 1383 1380 1378 1376 1374 1372 1369 1366 1363 1361 1359 1356 1354 1352 1349 1347 1346 1344 1343 1342 1340 1339 1339 1338 1338 1338 1338 1337 1337 1337 1337 1337 1336
1386 1386 1386 1386 1385 1384 1383 1382 1380 1378 1376 1373 1371 1368 1366 1363 1361 1358 1355 1353 1350 1348 1346 1344 1342 1340 1338 1337 1336 1335 1334 1333 1333 1332 1332 1332 1332 1332 1332 1332 1332 1332 1333
1382 1381 1381 1380 1380 1378 1377 1375 1373 1371 1369 1366 1363 1361 1358 1355 1352 1350 1347 1345 1342 1340 1338 1336 1334 1332 1330 1329 1328 1327 1327 1326 1326 1326 1326 1326 1326 1326 1327 1327 1328 1328 1328
1377 1377 1376 1375 1374 1372 1371 1369 1367 1364 1362 1359 1356 1353 1350 1347 1344 1342 1339 1337 1334 1332 1329 1328 1326 1324 1323 1321 1321 1320 1320 1319 1319 1319 1319 1319 1320 1320 1321 1322 1323 1323 1324
1372 1372 1371 1369 1368 1366 1364 1362 1359 1357 1354 1351 1348 1345 1342 1339 1336 1333 1331 1328 1326 1323 1321 1319 1318 1316 1315 1314 1313 1312 1312 1312 1313 1313 1313 1313 1314 1314 1315 1316 1317 1318 1319